This demonstration page uses our WeatherBlox Daily Observations layout. Learn more.

40.92945, -100.16068

Hourly Observations for May 23, 2017

Temp ( °F °C ) Dew Point ( °F °C ) Humidity (%) Winds ( mph kmh ) Pressure ( in mb ) Visibility ( mi km ) Precip ( " mm )
12:15 am 00:15 Clear 49 9.5 47 8.3 92 92 NW 6 9 30.06 1018 10 16.09344 0 0
12:35 am 00:35 Partly Cloudy 48 9.1 46 8 93 93 WNW 6 9 30.06 1018 10 16.09344 0 0
12:55 am 00:55 Clear 48 9 46 7.9 93 93 WNW 6 9 30.06 1018 10 16.09344 0 0
1:15 am 01:15 Clear 47 8.6 46 7.6 94 94 WNW 6 9 30.06 1018 10 16.09344 0 0
1:35 am 01:35 Clear 47 8.5 46 7.5 94 94 WNW 7 11 30.06 1018 10 16.09344 0 0
1:55 am 01:55 Clear 47 8.3 45 7.2 93 93 WNW 8 13 30.06 1018 10 16.09344 0 0
2:15 am 02:15 Clear 47 8.1 45 7 93 93 WNW 10 17 30.06 1018 10 16.09344 0 0
2:35 am 02:35 Clear 46 7.8 44 6.7 93 93 WNW 8 13 30.06 1018 10 16.09344 0 0
2:55 am 02:55 Clear 46 7.5 44 6.5 93 93 WNW 9 15 30.06 1018 10 16.09344 0 0
3:15 am 03:15 Clear 45 7.4 43 6.2 92 92 NW 9 15 30.06 1018 10 16.09344 0 0
3:35 am 03:35 Clear 45 7.2 43 6 92 92 WNW 10 17 30.06 1018 10 16.09344 0 0
3:55 am 03:55 Clear 45 7 42 5.8 92 92 WNW 9 15 30.09 1019 10 16.09344 0 0
4:15 am 04:15 Clear 44 6.8 42 5.6 92 92 WNW 9 15 30.09 1019 10 16.09344 0 0
4:35 am 04:35 Mostly Cloudy 44 6.7 42 5.5 92 92 WNW 8 13 30.09 1019 10 16.09344 0 0
4:55 am 04:55 Cloudy 45 7 42 5.8 92 92 WNW 9 15 30.09 1019 10 16.09344 0 0
5:15 am 05:15 Cloudy 45 7.2 42 5.8 91 91 WNW 13 20 30.06 1018 10 16.09344 0 0
5:35 am 05:35 Cloudy 45 7.1 42 5.5 90 90 WNW 12 19 30.06 1018 10 16.09344 0 0
5:55 am 05:55 Cloudy 45 7.3 42 5.6 89 89 WNW 13 20 30.06 1018 10 16.09344 0 0
6:15 am 06:15 Cloudy 45 7.3 42 5.6 89 89 WNW 12 19 30.06 1018 10 16.09344 0 0
6:35 am 06:35 Cloudy 45 7.3 42 5.5 88 88 WNW 9 15 30.06 1018 10 16.09344 0 0
6:55 am 06:55 Cloudy 45 7.3 42 5.6 89 89 NW 7 11 30.06 1018 10 16.09344 0 0
7:15 am 07:15 Cloudy 46 7.5 43 5.9 90 90 WNW 12 19 30.06 1018 10 16.09344 0 0
7:35 am 07:35 Cloudy 46 7.7 42 5.8 88 88 WNW 14 22 30.06 1018 10 16.09344 0 0
7:55 am 07:55 Cloudy 46 8 43 6 87 87 WNW 13 20 30.06 1018 10 16.09344 0 0
8:15 am 08:15 Cloudy 48 8.7 44 6.6 87 87 WNW 13 20 30.06 1018 10 16.09344 0 0
8:35 am 08:35 Cloudy 49 9.5 44 6.8 83 83 WNW 14 22 30.06 1018 10 16.09344 0 0
8:55 am 08:55 Cloudy 50 10.1 45 7.2 82 82 WNW 16 26 30.06 1018 10 16.09344 0 0
9:15 am 09:15 Cloudy 51 10.5 46 7.5 82 82 NW 16 26 30.03 1017 10 16.09344 0 0
9:35 am 09:35 Cloudy 51 10.6 46 7.9 84 84 NW 13 20 30.03 1017 10 16.09344 0 0
9:55 am 09:55 Cloudy 54 12.1 47 8.4 78 78 NW 16 26 30.03 1017 10 16.09344 0 0
10:15 am 10:15 Cloudy 56 13.2 47 8.5 73 73 NNW 23 37 30.03 1017 10 16.09344 0 0
10:35 am 10:35 Cloudy 56 13.1 45 7.1 67 67 NNW 20 31 30.03 1017 10 16.09344 0 0
10:55 am 10:55 Mostly Cloudy 58 14.5 46 7.8 64 64 NNW 23 37 30 1016 10 16.09344 0 0
11:15 am 11:15 Mostly Cloudy 57 13.9 43 6.3 60 60 NNW 22 35 30 1016 10 16.09344 0 0
11:35 am 11:35 Mostly Cloudy 58 14.4 43 6.3 59 59 N 22 35 30 1016 10 16.09344 0 0
11:55 am 11:55 Mostly Cloudy 57 13.9 42 5.5 57 57 NNW 26 43 29.97 1015 10 16.09344 0 0
12:15 pm 12:15 Cloudy 56 13.5 40 4.7 56 56 NNW 25 41 29.97 1015 10 16.09344 0 0
12:35 pm 12:35 Cloudy 55 12.5 40 4.3 58 58 NNW 23 37 30 1016 10 16.09344 0 0
12:55 pm 12:55 Cloudy 57 13.7 41 5.1 56 56 N 24 39 29.97 1015 10 16.09344 0 0
1:15 pm 13:15 Cloudy 57 14.1 41 5.2 55 55 NNW 24 39 29.97 1015 10 16.09344 0 0
1:35 pm 13:35 Cloudy 55 13 40 4.6 57 57 N 20 31 30 1016 10 16.09344 0 0
1:55 pm 13:55 Cloudy 57 13.7 41 4.9 56 56 N 17 28 29.97 1015 10 16.09344 0 0
2:15 pm 14:15 Cloudy 55 13 41 5 59 59 N 14 22 29.94 1014 10 16.09344 0 0
2:35 pm 14:35 Cloudy 57 13.8 42 5.3 57 57 N 15 24 29.94 1014 10 16.09344 0 0
2:55 pm 14:55 Cloudy 57 13.8 41 4.9 55 55 N 21 33 29.94 1014 10 16.09344 0 0
3:15 pm 15:15 Cloudy 55 12.8 42 5.4 61 61 N 20 31 30 1016 10 16.09344 0 0
3:35 pm 15:35 Cloudy 57 14.1 42 5.7 57 57 N 24 39 29.94 1014 10 16.09344 0 0
3:55 pm 15:55 Cloudy 57 13.8 41 5.1 56 56 N 24 39 29.97 1015 10 16.09344 0 0
4:15 pm 16:15 Cloudy 56 13.5 40 4.5 55 55 N 26 43 29.97 1015 10 16.09344 0 0
4:35 pm 16:35 Cloudy 56 13.6 40 4.4 54 54 N 23 37 29.94 1014 10 16.09344 0 0
4:55 pm 16:55 Cloudy 55 13 40 4.4 56 56 NNW 22 35 29.94 1014 10 16.09344 0 0
5:15 pm 17:15 Cloudy 56 13.3 40 4.5 55 55 NNW 17 28 29.94 1014 10 16.09344 0 0
5:35 pm 17:35 Cloudy 55 13 40 4.4 56 56 NNW 16 26 29.94 1014 10 16.09344 0 0
5:55 pm 17:55 Cloudy 56 13.6 40 4.5 54 54 NNW 21 33 29.94 1014 10 16.09344 0 0
6:15 pm 18:15 Cloudy 56 13.6 41 4.9 56 56 NNW 17 28 29.94 1014 10 16.09344 0 0
6:35 pm 18:35 Mostly Cloudy 58 14.7 41 4.8 52 52 NNW 21 33 29.94 1014 10 16.09344 0 0
6:55 pm 18:55 Cloudy 59 14.9 41 4.8 51 51 NNW 25 41 29.94 1014 10 16.09344 0 0
7:15 pm 19:15 Cloudy 56 13.2 40 4.5 56 56 N 17 28 29.94 1014 10 16.09344 0 0
7:35 pm 19:35 Mostly Cloudy 56 13.1 40 4.7 57 57 N 17 28 29.94 1014 10 16.09344 0 0
7:55 pm 19:55 Partly Cloudy 56 13.3 40 4.4 55 55 N 18 30 29.94 1014 10 16.09344 0 0
8:15 pm 20:15 Partly Cloudy 55 12.7 41 4.9 59 59 N 17 28 29.97 1015 10 16.09344 0 0
8:35 pm 20:35 Partly Cloudy 54 12.4 40 4.7 60 60 N 14 22 29.97 1015 10 16.09344 0 0
8:55 pm 20:55 Partly Cloudy 53 11.6 40 4.4 62 62 N 15 24 29.97 1015 10 16.09344 0 0
9:15 pm 21:15 Clear 52 10.9 40 4.4 64 64 N 12 19 29.97 1015 10 16.09344 0 0
9:35 pm 21:35 Clear 49 9.6 40 4.7 72 72 NNW 9 15 30 1016 10 16.09344 0 0
9:55 pm 21:55 Clear 48 8.8 40 4.7 76 76 NNW 9 15 30 1016 10 16.09344 0 0
10:15 pm 22:15 Clear 48 8.8 40 4.6 75 75 N 8 13 30 1016 10 16.09344 0 0
10:35 pm 22:35 Clear 46 7.8 40 4.5 80 80 N 6 9 30 1016 10 16.09344 0 0
10:55 pm 22:55 Clear 44 6.8 39 4.1 83 83 NNW 6 9 30 1016 10 16.09344 0 0
11:15 pm 23:15 Clear 44 6.7 40 4.2 84 84 NNW 5 7 30 1016 10 16.09344 0 0
11:35 pm 23:35 Clear 44 6.4 39 4 85 85 NNW 5 7 30.03 1017 10 16.09344 0 0
11:55 pm 23:55 Clear 42 5.5 38 3.3 86 86 WNW 5 7 30.03 1017 10 16.09344 0 0

Powered by AerisWeather